RH
10 11 11 12 13 12 13 13 11 8 5 4 4 4 4 5 5 5 5 5 5 5 5 7 8 11 11 10 13 15 17 17 17 17 17 17 17 17 17 18 19 19 20 22 25 27 29 32 34 35 38 39 41 43 46 43 40 43 44 37 35 37 37 38 41 43 45 47 48 46 49 54 56 56 56 59 60 58 58 61 66 67 62 61 64 66 67 66
9 10 11 11 12 12 13 12 13 11 7 5 4 4 4 5 5 5 5 4 4 5 5 5 7 9 10 11 12 15 17 17 18 17 16 17 17 17 17 17 18 18 20 22 25 25 25 25 27 30 33 36 37 37 40 39 36 41 42 36 34 36 34 35 36 37 40 43 44 43 46 51 54 55 54 58 59 57 60 62 68 72 67 62 63 65 65 64
8 9 9 10 11 12 13 12 13 13 10 7 5 4 4 5 5 5 4 4 4 5 5 5 5 7 9 11 12 14 17 18 18 17 16 16 17 17 16 17 18 18 18 21 24 24 23 22 22 24 29 33 34 33 36 36 34 37 39 36 34 35 34 33 33 32 34 39 44 44 46 48 50 51 52 56 58 59 62 63 68 74 70 66 63 62 64 63
7 8 8 9 10 11 12 12 12 13 12 9 6 5 4 4 5 5 5 4 4 4 5 5 5 5 7 10 11 13 16 18 18 17 16 16 16 17 16 16 17 18 18 19 21 22 23 23 22 24 27 30 30 30 33 32 33 36 36 35 34 35 35 34 33 32 32 35 40 42 45 47 45 46 49 52 56 59 60 60 65 70 69 68 65 64 66 66
7 7 8 8 9 10 11 12 12 12 13 11 8 6 4 4 4 5 4 4 4 4 5 4 4 4 6 9 11 13 15 19 19 17 17 15 16 17 16 15 16 17 17 17 18 20 23 23 22 23 26 28 27 29 31 30 32 33 35 35 35 34 34 35 35 34 34 35 36 39 44 47 43 43 46 48 51 54 56 57 61 65 66 66 65 66 66 67
8 7 7 7 8 9 10 11 12 12 12 12 9 6 5 4 4 5 4 4 4 4 5 4 4 4 5 8 10 12 15 19 19 18 17 15 16 17 17 15 15 16 15 16 17 19 22 22 20 21 24 25 27 30 30 30 32 32 33 36 36 35 34 34 35 35 35 35 35 37 41 46 45 43 45 44 45 47 50 55 59 61 62 62 62 64 64 64
8 8 7 7 7 8 9 10 11 12 12 12 11 8 6 5 4 4 4 4 4 4 4 4 4 3 4 7 9 12 15 18 18 18 17 15 15 16 17 16 15 15 14 14 16 19 21 19 18 20 21 21 24 30 31 30 31 30 31 36 37 35 33 30 32 34 35 35 35 37 39 44 45 41 44 43 41 42 46 50 52 54 56 58 58 58 59 60
8 8 8 7 7 8 8 9 10 12 12 12 12 10 7 6 5 5 4 4 4 5 4 4 4 3 4 6 9 13 15 16 17 18 17 15 15 15 16 16 15 15 14 15 16 21 21 17 17 19 20 20 22 28 31 30 29 28 31 35 38 37 34 28 29 32 35 37 36 38 38 40 41 39 41 42 40 41 43 44 45 47 48 51 54 54 56 59
9 8 8 8 7 7 7 8 9 11 12 12 12 11 8 6 6 5 5 4 4 5 4 4 4 3 4 5 8 13 15 16 17 18 17 15 15 15 15 16 16 15 15 15 17 22 22 17 17 19 21 22 22 24 28 30 29 29 31 33 37 39 38 32 30 32 36 39 37 38 38 37 38 38 40 40 40 41 42 43 42 43 44 45 49 51 54 59
10 8 8 8 8 7 7 7 8 10 12 12 11 11 9 7 6 6 5 5 5 5 4 4 4 3 4 5 8 13 15 17 18 18 18 17 15 14 15 15 16 15 15 14 16 23 22 16 18 20 21 23 22 23 25 28 29 30 32 32 34 38 41 37 32 31 36 40 37 38 40 38 36 38 41 38 39 41 40 42 43 43 43 42 45 50 55 59
11 9 8 8 8 8 7 7 7 9 11 12 11 11 11 9 7 6 5 5 4 5 4 4 4 3 4 5 7 11 15 17 18 18 18 17 15 14 15 15 15 15 15 13 15 21 19 16 19 20 21 23 23 24 25 27 29 31 32 32 33 35 40 41 35 31 35 40 39 37 38 39 38 39 40 37 37 40 39 41 42 42 41 41 45 50 56 59
12 10 8 8 8 9 7 7 6 8 10 11 11 10 11 10 8 7 6 5 5 5 4 4 4 3 3 5 6 11 15 16 17 18 17 17 16 15 15 15 15 15 15 13 14 16 16 18 21 21 22 23 24 25 26 29 32 34 33 33 33 34 40 42 36 32 34 39 38 36 37 39 42 42 39 36 38 38 39 40 41 42 42 42 46 50 55 57
12 10 9 8 9 9 8 7 6 7 8 10 11 10 10 11 9 7 6 6 5 5 4 4 4 4 4 5 7 11 13 14 15 16 17 16 16 15 14 15 15 14 15 14 13 13 16 20 21 21 22 22 24 24 24 27 31 35 34 32 32 35 40 39 36 34 35 37 34 36 39 40 41 42 39 38 39 38 39 40 40 41 42 44 47 48 50 51
12 10 9 8 8 9 9 7 6 6 7 8 10 10 10 10 11 9 7 6 5 5 5 4 5 6 5 5 7 10 10 12 13 15 16 15 15 15 14 14 14 14 15 13 13 13 15 19 20 21 22 23 24 24 24 26 29 34 35 32 32 36 40 36 35 38 36 34 32 36 40 40 40 42 42 41 40 37 37 39 40 41 42 45 46 47 46 47
12 10 9 8 9 9 9 8 7 6 6 7 8 10 10 10 11 10 8 7 6 5 5 5 6 7 7 5 6 8 9 10 12 14 15 14 14 14 14 14 14 14 14 13 13 12 13 17 20 21 22 23 24 23 24 24 26 31 34 35 33 34 38 34 33 38 35 31 32 36 41 41 40 40 43 45 41 36 37 39 40 40 43 45 45 46 46 46
12 10 9 8 8 9 9 9 7 6 6 6 7 9 10 10 10 11 10 7 6 6 4 5 7 8 7 6 6 8 8 9 11 13 15 14 13 14 14 14 15 14 13 13 12 12 14 17 20 21 22 23 24 23 23 22 23 25 27 32 33 33 36 32 32 36 33 29 30 35 40 42 40 39 42 46 43 38 38 41 41 39 42 44 45 46 46 47
12 10 9 9 9 8 8 9 8 7 6 5 6 7 9 10 10 11 10 8 7 6 5 5 7 7 7 6 7 8 7 8 10 13 14 14 14 14 14 14 15 14 13 11 11 12 15 18 20 22 23 23 22 23 24 22 20 21 21 27 30 31 32 31 33 35 31 28 29 33 38 40 40 39 41 45 44 41 39 40 41 39 39 42 44 46 46 46
12 10 9 9 9 8 8 9 9 8 6 5 5 6 8 9 9 10 10 10 8 6 6 5 6 7 6 6 7 8 8 8 9 11 13 14 14 14 14 15 14 13 12 11 11 11 14 18 22 23 23 22 20 22 26 21 17 16 18 24 28 29 30 30 33 32 28 29 30 33 37 40 41 41 42 44 45 45 42 40 40 39 40 43 45 47 47 47
12 11 10 10 10 8 8 9 9 8 7 6 5 5 6 9 10 10 10 11 9 7 8 7 6 7 7 6 6 8 8 8 8 9 12 12 12 13 13 14 14 12 11 11 12 13 15 19 22 23 22 21 20 22 23 19 15 15 16 21 25 27 28 29 31 29 25 30 31 32 36 40 43 43 43 45 45 47 46 43 42 42 41 44 47 48 48 48
13 11 10 10 10 9 8 9 9 8 7 6 5 6 7 10 11 11 11 12 12 9 8 7 7 7 7 6 6 7 7 7 7 8 11 11 11 13 14 13 13 12 11 11 14 15 16 20 22 22 20 21 22 22 21 17 14 15 16 21 23 23 25 26 27 28 27 30 31 32 37 41 44 46 46 48 48 48 48 45 45 46 44 44 47 50 51 50
13 11 10 11 10 9 9 8 8 8 7 6 5 6 8 10 10 11 11 12 12 11 9 7 8 8 8 7 7 7 8 8 7 8 10 10 11 13 14 13 13 13 11 12 14 15 16 19 20 20 19 22 24 23 20 16 14 16 16 19 23 23 24 23 26 30 29 30 33 34 38 41 46 49 48 49 50 50 51 49 49 49 48 47 48 52 55 55
13 12 11 11 11 10 9 8 8 8 8 6 5 6 8 8 9 10 11 12 12 12 10 8 7 7 7 8 8 7 8 8 7 8 9 11 12 13 14 13 13 13 13 14 14 15 17 18 18 19 21 24 26 23 19 15 14 16 15 18 22 23 22 23 28 32 30 30 35 36 38 44 49 50 49 50 51 53 54 53 54 54 54 53 51 52 56 59
13 12 11 11 11 10 9 9 9 9 8 7 6 6 7 7 8 8 10 12 12 12 11 9 7 7 6 7 7 7 8 8 8 9 10 11 13 13 13 14 13 12 13 14 14 16 18 17 16 18 20 22 25 23 17 13 14 15 14 15 19 20 20 23 27 31 31 31 36 38 39 46 51 50 51 53 54 54 55 56 57 57 57 56 54 52 54 57
14 13 12 12 11 10 9 9 9 9 8 7 6 6 7 7 7 8 9 11 12 11 11 10 8 7 6 6 6 6 7 7 8 9 10 11 12 12 13 13 13 12 13 14 14 15 17 16 16 17 19 21 22 21 16 14 16 15 13 14 16 19 18 19 23 28 31 32 34 38 43 49 51 52 54 57 58 57 56 57 58 57 57 56 56 54 53 53
14 13 13 12 11 11 10 9 9 10 9 9 8 7 6 6 7 8 9 11 12 11 11 11 9 7 6 6 5 5 5 5 6 8 10 10 11 12 12 12 13 12 12 13 14 15 16 16 16 17 21 21 19 19 17 16 17 15 14 15 16 16 15 17 20 24 31 35 34 36 45 53 53 53 57 58 62 62 59 59 58 58 57 56 55 54 53 52
14 14 13 12 11 10 10 9 9 10 12 12 10 8 7 7 8 7 10 13 13 10 10 11 11 8 7 6 5 5 5 5 4 5 7 8 8 9 11 12 12 11 11 13 15 15 14 14 15 16 19 20 19 18 17 17 17 16 15 15 14 12 11 16 20 22 30 34 33 34 43 53 54 56 60 60 64 65 62 62 59 58 58 57 57 57 56 57
15 14 13 12 12 11 11 11 9 12 14 14 11 9 8 8 8 7 10 12 10 8 9 10 11 10 8 6 5 5 5 5 5 4 4 5 6 7 10 12 12 10 10 13 16 15 13 13 14 16 18 19 19 19 19 18 18 18 15 14 15 13 12 16 19 22 25 27 33 35 37 50 58 60 62 60 63 66 63 61 59 58 59 58 59 60 61 62
13 13 13 13 11 10 12 12 11 13 14 13 12 9 8 8 8 9 14 15 9 7 8 8 10 10 9 8 6 5 5 5 6 5 3 5 6 7 9 12 12 11 10 13 15 14 14 14 14 16 17 17 19 20 21 19 18 18 16 14 14 14 13 14 14 17 19 24 35 36 35 51 62 61 60 61 62 64 62 59 59 60 61 59 59 62 64 64
12 12 12 12 12 11 11 11 11 13 13 13 13 10 7 7 9 11 17 18 11 7 8 8 9 10 10 9 7 6 5 6 7 6 5 6 7 7 9 10 11 11 11 12 13 13 14 14 14 15 15 16 16 17 19 19 18 17 15 14 14 13 14 14 13 14 16 22 31 33 36 52 63 59 59 61 60 60 60 60 60 61 61 59 59 63 64 63
11 12 11 12 12 11 11 10 10 12 13 13 11 10 8 8 12 15 13 13 12 9 9 10 9 9 10 9 8 7 6 7 8 7 7 8 8 8 9 11 12 12 12 12 12 12 12 12 13 14 14 15 14 14 16 17 17 17 15 15 14 15 15 16 18 18 22 30 34 34 36 46 57 58 57 57 56 56 60 62 61 61 61 59 59 63 63 61
12 12 11 11 11 10 10 10 10 11 12 13 10 9 9 10 17 18 11 9 13 12 11 11 11 10 10 10 9 8 7 8 9 8 9 10 10 10 11 12 12 12 13 12 11 11 10 11 13 13 13 14 14 14 15 16 16 17 17 15 14 17 17 18 24 24 31 42 41 35 35 40 50 55 54 54 53 56 59 59 60 62 62 60 60 63 62 62
12 12 11 11 11 10 10 9 9 8 10 11 10 10 12 14 17 18 13 11 13 14 13 12 11 11 10 10 10 8 9 9 8 8 10 11 12 11 11 13 13 12 13 13 12 11 11 11 12 13 14 14 14 15 16 16 15 15 17 17 16 19 19 22 28 27 32 41 40 36 36 40 48 51 52 53 52 55 57 57 60 64 63 60 59 61 61 62
12 12 11 11 10 9 9 9 9 9 9 9 10 12 16 18 17 15 14 13 13 15 15 14 12 11 11 10 10 9 10 10 9 9 11 12 13 13 12 12 12 12 12 13 12 12 12 11 11 14 16 15 15 16 16 16 15 11 13 16 17 19 18 23 30 30 34 38 37 37 39 44 51 52 54 56 55 55 56 58 61 62 61 59 57 57 59 62
13 12 11 10 9 8 9 9 9 10 9 8 11 16 18 20 17 13 13 14 15 16 17 16 14 13 11 10 11 9 10 11 11 11 12 12 13 13 12 11 11 12 11 11 12 14 15 15 15 15 17 17 15 16 15 14 13 12 12 15 18 18 17 20 25 27 34 40 40 41 46 51 55 54 55 57 57 58 59 61 62 61 60 59 56 57 58 61
13 12 11 9 8 8 9 10 10 9 8 10 15 20 20 19 16 14 15 16 16 18 18 17 16 14 12 11 10 10 10 11 11 11 12 12 12 13 11 10 11 11 10 11 13 15 16 17 16 16 17 17 16 16 15 14 15 15 14 16 16 16 17 19 23 24 30 42 49 52 53 55 56 57 56 56 58 60 63 64 63 61 61 59 58 59 59 61
12 11 11 9 8 8 9 10 10 7 8 12 17 19 19 17 16 17 18 18 20 21 20 16 15 15 13 11 10 10 10 11 12 12 12 12 12 11 11 10 10 9 9 12 14 14 15 16 16 16 17 16 16 17 16 15 17 16 14 15 14 15 16 18 23 26 33 47 55 57 59 59 59 59 58 59 62 63 65 66 64 63 62 61 61 60 60 63
12 11 10 9 8 8 9 10 9 7 9 13 17 20 18 15 17 19 21 23 25 25 21 17 15 14 14 12 10 10 10 11 12 13 12 13 12 11 10 9 9 8 8 11 13 13 15 17 17 17 17 16 16 17 16 16 16 15 15 16 15 15 16 19 23 28 41 56 61 61 64 64 63 61 58 61 65 67 68 67 66 64 63 63 62 60 59 61
11 10 9 9 8 8 10 10 9 9 11 14 19 21 18 19 23 23 22 25 27 26 24 19 17 15 14 13 10 9 11 12 12 12 12 12 11 10 9 9 9 8 8 11 13 15 17 19 19 17 16 16 16 16 18 18 16 15 16 17 17 17 19 22 24 28 44 64 68 65 65 66 66 65 63 63 65 68 68 67 67 67 66 66 63 59 57 57
9 9 10 9 8 8 9 9 9 10 12 15 19 19 19 24 27 24 24 27 28 28 26 21 17 16 14 13 11 9 10 12 12 13 12 12 12 10 9 9 9 9 9 11 14 17 19 19 20 20 17 16 17 17 19 20 17 16 16 17 19 20 21 23 25 29 43 62 68 64 65 67 69 68 67 64 64 66 67 67 70 69 67 66 63 58 56 55
8 11 12 11 9 8 8 9 11 13 15 17 18 17 21 26 25 24 28 29 29 28 26 21 18 17 15 14 13 12 12 13 13 13 12 12 12 10 9 9 10 11 10 11 15 18 19 19 21 21 19 17 18 19 21 19 17 16 17 17 20 22 24 27 30 31 38 55 66 68 69 69 67 66 66 66 66 66 66 68 71 69 66 65 62 59 57 54
11 16 17 16 14 10 7 10 13 15 17 17 16 17 22 25 26 29 31 29 28 27 24 21 19 18 17 17 16 15 15 16 15 14 13 13 13 13 13 11 11 12 11 12 16 19 19 20 20 20 20 19 20 21 20 19 18 17 18 20 21 23 26 33 38 36 35 45 57 63 68 70 67 66 66 65 66 67 67 69 71 70 66 64 62 60 60 59
18 24 21 19 20 13 8 13 14 13 15 15 15 17 22 26 28 30 29 27 25 24 23 21 19 19 19 20 19 17 16 17 16 14 14 14 14 15 16 15 13 12 13 13 16 19 20 21 20 20 21 20 19 21 21 20 20 19 20 22 23 25 27 34 41 40 39 44 48 55 65 69 67 65 65 65 65 66 67 68 70 69 66 64 64 64 64 64
23 26 22 21 21 15 11 14 14 12 13 13 15 18 23 28 29 29 28 25 23 23 22 21 19 19 20 20 20 18 16 17 17 15 14 15 15 15 15 16 15 15 14 14 17 20 20 20 20 24 27 24 21 21 21 21 21 22 24 25 26 28 29 33 36 38 43 48 50 59 69 70 66 64 64 66 65 64 65 65 65 65 65 66 67 66 66 65
23 24 24 23 21 16 14 15 14 15 16 14 17 22 28 30 28 27 27 25 24 23 22 21 19 19 20 20 20 19 18 17 17 15 15 15 15 15 15 16 17 18 16 14 17 19 20 22 24 25 29 30 27 24 23 23 22 24 27 28 28 30 32 34 37 39 46 50 51 60 69 67 64 62 62 62 62 61 62 61 61 63 65 67 67 67 67 67
23 25 26 25 23 20 18 16 16 19 18 16 21 28 31 30 27 25 25 24 24 22 21 21 19 18 20 19 19 19 18 17 18 16 16 16 15 15 16 16 17 19 18 16 16 16 19 24 25 24 27 28 28 27 25 24 24 27 30 29 28 31 33 35 40 43 49 53 53 58 63 64 64 63 60 58 58 60 60 59 60 63 64 65 68 70 69 66
25 28 28 26 24 22 19 16 17 20 18 18 25 33 34 33 28 24 22 22 23 21 20 21 19 19 20 19 19 20 17 17 18 17 16 17 16 16 16 16 16 17 18 16 14 16 20 22 23 27 28 25 27 31 29 26 26 28 30 29 30 33 33 34 39 43 48 53 55 57 60 64 65 63 60 58 58 59 59 57 59 62 62 63 67 70 69 66
27 30 32 30 27 25 21 16 17 20 17 19 29 36 36 34 29 24 20 20 21 21 20 20 19 20 21 19 19 19 18 17 17 17 18 18 17 17 16 17 17 17 17 17 15 17 20 20 20 25 25 22 26 31 28 26 28 29 31 32 33 34 33 32 36 41 47 52 55 57 61 64 62 58 57 57 57 59 59 55 57 62 63 64 67 67 66 65
28 30 34 33 31 32 27 19 17 18 18 21 29 35 35 32 29 25 21 19 20 20 20 20 19 21 20 19 19 19 19 19 17 18 20 18 18 19 18 18 18 18 17 17 17 17 19 18 18 21 21 20 24 28 28 29 31 33 35 35 35 35 34 35 38 43 48 51 53 57 61 63 60 56 55 55 55 57 57 55 57 61 63 63 64 62 62 63
31 33 36 34 32 33 31 25 20 20 21 26 30 33 33 32 29 26 22 20 20 21 21 20 20 20 19 20 20 21 21 19 18 20 21 20 19 20 20 18 17 17 17 16 16 17 17 18 19 20 20 22 26 29 30 30 32 35 37 35 36 37 36 38 42 46 49 50 52 56 60 62 60 57 56 54 53 55 56 55 58 60 61 61 60 59 60 60
34 36 38 37 34 31 29 27 24 22 25 28 29 30 31 31 29 26 23 23 23 22 21 21 21 20 19 21 21 22 22 20 20 21 20 20 20 20 20 18 17 18 16 15 17 15 15 19 23 23 22 25 31 32 32 34 34 36 37 35 35 37 39 43 47 49 52 54 55 57 61 63 60 57 56 56 56 57 57 57 58 58 59 58 57 57 58 58
33 36 38 39 37 32 28 28 27 27 27 29 31 34 35 35 31 27 25 25 25 24 21 21 21 20 20 23 23 22 22 21 21 21 19 19 21 21 20 19 19 20 17 14 15 14 13 18 24 26 25 27 32 34 34 37 38 39 42 42 40 40 42 46 48 49 53 56 57 59 62 61 59 56 57 58 58 58 58 57 57 57 57 57 56 56 58 59
31 34 35 37 39 35 29 29 30 29 30 35 38 37 36 33 31 28 26 24 24 24 23 22 21 20 23 25 24 23 22 20 21 21 19 20 22 22 22 21 20 21 18 16 15 13 14 18 22 26 27 27 30 33 34 38 43 46 47 44 42 42 43 44 45 46 51 55 56 58 59 58 58 58 59 61 59 58 57 55 55 55 56 56 55 55 56 57